Vorticity
nan nan nan nan nan nan nan nan nan nan nan nan nan nan nan nan nan nan nan nan nan nan nan nan nan nan nan nan nan nan nan nan nan nan nan nan nan nan nan nan nan nan nan nan
nan 4 8 13 11 6 14 3 9 16 18 6 -4 5 17 18 14 22 6 8 9 5 7 9 9 7 6 7 6 6 5 8 6 6 8 7 10 8 8 9 11 8 8 nan
nan 5 11 5 15 2 2 3 11 14 7 11 -3 2 -1 1 10 23 20 20 8 10 12 5 6 7 7 7 7 6 6 6 6 5 5 6 8 9 9 12 13 11 7 nan
nan 9 8 6 5 10 10 8 3 7 12 8 6 6 4 16 11 8 10 12 19 13 2 13 19 9 5 5 10 5 7 7 6 5 5 7 7 7 8 10 10 10 12 nan
nan 11 5 9 11 4 3 7 8 8 8 5 19 13 16 18 11 3 10 9 9 23 21 12 8 8 9 6 6 10 10 6 8 6 4 7 7 5 9 11 9 7 9 nan
nan 4 11 7 7 8 5 11 9 11 14 7 22 11 14 11 8 6 6 5 8 12 15 22 16 1 8 16 16 4 8 7 7 8 5 9 12 7 8 8 7 8 9 nan
nan 22 11 9 8 10 7 13 17 14 13 9 7 12 15 13 7 6 8 5 8 9 13 24 16 11 9 0 -1 21 21 9 9 9 8 4 4 18 16 8 5 8 9 nan
nan 13 13 5 4 5 14 9 8 8 9 16 6 13 17 9 8 5 2 14 8 2 7 13 21 26 15 15 3 19 13 10 9 7 10 5 10 12 9 7 10 8 5 nan
nan 5 11 8 5 3 8 4 7 17 10 9 3 6 17 13 4 0 2 4 17 14 7 3 14 23 16 4 11 11 10 9 9 6 5 9 9 5 6 5 7 8 9 nan
nan 12 10 16 6 8 3 4 7 10 12 6 4 9 6 6 4 3 7 12 13 12 13 8 8 4 7 15 15 8 6 7 7 8 8 8 7 9 6 8 8 7 10 nan
nan 8 11 5 4 16 8 -2 5 12 9 6 4 11 10 4 4 8 9 13 9 10 10 11 10 10 7 9 10 11 16 10 10 10 11 10 8 7 4 5 10 10 9 nan
nan 13 10 2 17 17 4 8 9 9 7 6 10 9 5 9 4 5 15 9 10 13 8 9 9 10 12 9 2 9 16 14 11 9 11 10 8 1 5 9 9 10 8 nan
nan 10 6 12 16 9 5 3 4 6 10 9 8 8 -0 -3 7 14 11 8 12 12 7 7 8 8 14 14 9 9 9 18 18 11 8 6 5 6 10 9 6 8 10 nan
nan 7 5 2 3 6 5 5 8 7 7 7 5 2 4 9 19 15 9 9 11 8 4 7 11 9 6 7 9 10 9 13 18 19 11 8 7 8 10 12 11 11 12 nan
nan 7 7 4 4 4 6 9 9 10 9 6 5 8 11 15 17 10 10 7 8 14 12 8 11 7 5 8 8 8 10 11 16 20 16 11 9 12 11 10 12 12 10 nan
nan 9 10 8 8 7 7 10 11 12 15 13 12 14 13 13 7 7 7 6 12 16 15 13 10 9 12 11 10 9 9 10 13 12 14 15 14 12 11 9 8 9 8 nan
nan 9 10 9 9 13 14 14 13 12 12 12 14 11 9 8 8 8 12 16 15 16 13 8 9 13 11 11 12 12 10 9 9 11 9 7 9 10 10 10 9 9 9 nan
nan 10 9 10 11 8 6 11 21 17 9 8 9 10 10 9 6 12 15 13 10 9 15 13 12 11 10 13 12 11 10 9 9 9 10 10 11 10 11 9 9 7 10 nan
nan 12 9 11 8 11 13 7 14 13 8 16 16 13 10 7 11 11 7 5 8 9 9 14 21 10 12 10 12 9 9 8 9 10 11 10 11 10 10 10 10 10 9 nan
nan 9 11 10 7 8 8 26 19 5 11 11 9 7 6 8 12 4 1 5 11 14 13 21 18 11 10 11 9 8 10 9 10 9 9 10 9 9 9 9 9 9 10 nan
nan 7 5 8 9 8 19 16 8 11 9 3 5 6 9 10 10 7 7 14 12 13 12 24 16 10 10 11 9 7 8 10 9 13 13 9 9 9 10 9 10 10 10 nan
nan 11 14 11 11 7 13 11 5 12 9 3 4 7 10 9 9 9 12 13 11 9 17 17 9 10 10 10 9 10 9 10 10 9 10 9 8 8 13 12 9 9 8 nan
nan 12 11 7 10 14 6 8 5 2 8 10 9 9 11 10 7 9 10 14 15 8 14 12 9 11 11 9 9 10 9 12 13 9 9 10 9 9 11 9 9 8 9 nan
nan 14 12 11 9 4 3 3 13 13 10 9 9 12 11 9 11 11 10 12 13 14 16 19 8 11 12 11 8 10 12 11 10 9 10 10 9 12 8 7 8 10 10 nan
nan 8 10 13 16 16 14 7 8 11 10 10 11 11 10 9 9 9 11 15 12 11 18 17 12 11 10 10 10 11 11 10 8 9 9 8 9 11 6 9 11 8 6 nan
nan nan nan nan nan nan nan nan nan nan nan nan nan nan nan nan nan nan nan nan nan nan nan nan nan nan nan nan nan nan nan nan nan nan nan nan nan nan nan nan nan nan nan nan
CAPE
79 1 102 85 143 212 170 52 86 294 409 169 444 252 289 103 22 144 669 763 599 307 206 234 277 190 45 150 51 251 356 1801 646 751 247 174 220 604 621 614 1498 2113 2775 2449
44 285 10 27 187 180 117 65 121 296 392 462 198 145 57 98 589 540 713 812 785 586 315 375 642 566 398 681 408 323 687 1837 684 307 69 254 291 736 629 932 1743 2233 2841 3102
1 144 356 119 93 222 80 62 7 42 50 293 486 16 16 0 53 195 280 955 731 793 530 425 691 691 699 1009 1225 457 562 1080 788 437 379 589 2162 2373 1223 1541 1972 2004 2953 3475
296 359 114 92 303 0 183 8 0 0 18 398 284 200 8 0 41 182 161 242 404 701 698 224 674 809 838 1049 1291 1754 884 1182 974 1273 674 1259 614 1097 1221 2130 2823 2458 1979 3353
241 203 165 123 37 0 4 0 0 10 1 25 14 225 253 264 120 37 33 59 137 330 786 651 626 960 880 1025 1037 1918 2073 1366 1230 1107 1702 1057 2007 914 2884 3326 2618 2840 2647 2763
326 209 0 33 0 0 58 0 46 97 142 28 0 161 100 6 0 0 0 49 286 787 950 1071 1123 688 924 1407 1046 1477 2722 1621 1724 1242 949 2662 1512 2690 2650 2652 2615 2189 2297 2312
8 196 26 0 0 19 139 33 46 115 92 10 0 0 1 1 29 1 0 18 385 721 1055 1222 857 1687 1088 1382 1038 2088 2321 2947 2015 1775 1354 1144 1159 1368 1291 1819 1329 392 678 1017
64 90 56 112 0 0 0 34 104 145 4 6 12 31 0 0 2 0 0 0 282 468 331 831 1105 767 1307 1526 1679 2829 3240 2964 3173 1459 905 949 465 551 225 16 5 14 3 78
40 53 165 91 0 0 0 0 0 0 66 50 11 0 1 0 0 0 0 0 0 113 646 669 917 1803 1236 1725 2362 2689 3188 3056 2279 1843 1233 792 749 338 5 31 1 0 0 15
7 10 3 96 10 0 0 11 38 0 49 0 1 1 10 0 0 0 0 0 0 0 779 862 807 1250 1981 1906 1785 2277 2193 2258 1968 1689 1565 1142 1083 23 3 1 0 0 0 17
0 0 0 0 0 14 9 24 0 0 1 0 0 5 0 0 0 0 0 0 47 75 452 751 740 1452 2237 2247 2375 2780 2656 2723 2907 2902 1974 1392 602 178 6 6 22 34 29 23
0 0 0 0 0 0 0 0 0 0 0 0 0 0 0 0 0 0 0 99 134 496 1372 1436 1609 1742 1987 2043 2111 2675 2966 3068 2879 2447 1761 1340 570 411 215 190 46 84 138 254
0 0 0 0 0 0 0 0 0 0 0 0 0 0 1 3 0 0 16 20 966 2034 1860 1430 1537 1540 1740 1924 1499 1499 1891 2648 2586 2228 1946 1403 1090 655 444 485 457 359 437 221
0 0 0 0 0 0 0 0 0 0 0 0 0 0 0 0 0 0 0 100 474 1837 1957 1286 1308 1842 1738 929 897 648 1034 979 2329 1784 1471 1171 583 937 823 734 776 744 283 221
0 0 0 0 0 0 0 0 0 0 0 0 0 0 0 0 15 67 127 162 275 481 1585 1482 1440 1645 1567 1174 651 510 411 401 863 1132 533 1009 736 689 1185 815 267 155 15 15
0 0 0 0 0 0 0 0 0 0 0 0 0 0 0 1 84 151 174 70 189 290 1251 1701 1656 1817 1614 1223 1091 716 360 273 298 396 144 91 97 175 157 45 17 0 0 19
0 5 18 30 0 0 0 0 0 0 0 0 0 0 0 45 45 106 46 65 202 606 1656 1995 1630 1581 1877 1553 1455 1080 580 287 209 191 59 3 8 2 2 4 3 3 5 18
0 117 1 0 0 0 0 0 0 0 0 0 0 0 0 0 0 1 484 804 699 527 989 1601 1871 1741 1627 1943 1699 1546 675 503 334 210 131 54 28 27 15 6 55 319 265 129
0 0 0 11 0 0 0 0 1 5 27 0 0 0 0 20 39 234 406 312 182 154 299 1016 2033 1778 1665 1874 1841 1375 1249 853 662 449 240 210 79 103 41 161 102 457 392 448
0 0 14 21 0 0 26 0 0 0 0 5 32 20 39 17 9 5 162 2 43 204 528 884 2126 1731 1884 1958 1920 1612 1423 1163 994 548 521 395 159 77 85 224 401 616 484 198
41 321 77 23 4 0 0 4 0 0 153 130 42 2 0 0 56 10 0 7 35 538 544 1793 2123 1735 2017 1873 1714 1336 1557 1245 937 913 790 722 608 220 296 783 405 306 289 352
62 358 24 273 282 233 118 29 11 206 1 0 0 0 0 0 0 0 10 294 133 248 590 1775 1817 1783 1966 1949 1843 1717 1353 1345 1110 1026 706 953 708 701 627 823 542 494 608 722
9 124 149 544 232 383 85 32 5 0 0 0 0 0 0 0 2 7 110 367 184 236 914 1461 1674 1575 1836 2135 1813 1646 1757 1696 1727 1246 1230 1190 1090 861 447 425 389 327 501 229
18 66 324 650 247 151 86 144 79 3 0 0 0 0 3 4 16 14 402 476 703 925 1030 1556 1673 1827 1729 1646 1567 1781 1531 1638 1258 1093 973 800 578 424 289 224 292 203 123 25
0 56 297 359 204 206 163 55 0 0 0 0 0 0 3 45 33 46 480 1319 723 1466 1515 913 1191 1833 1680 2119 1664 1569 1710 1604 1049 779 466 313 185 115 257 389 65 21 39 38
0 0 1 20 115 50 15 0 0 0 0 0 0 0 4 25 45 95 303 716 637 821 1406 2105 2274 2137 2164 2342 2038 1635 1407 1372 937 557 264 99 49 72 37 29 87 4 3 0